GEFSNGP_prec_meanprecacc_366.txt.gz
Total_Precipitation_Accumulation
0.45 0.46 0.59 0.63 0.55 0.56 0.67 0.78 0.96 0.88 0.81 0.67 0.62 0.68 0.72 0.69 0.64 0.60 0.53 0.46 0.49 0.54 0.62 0.65 0.72 0.78 0.78 0.77 0.83 0.91 1.05 1.18 1.26 1.35 1.42 1.36 1.24 1.17 1.24 1.22 1.21 1.32 1.45 1.58
0.35 0.32 0.42 0.50 0.48 0.50 0.53 0.59 0.71 0.76 0.74 0.58 0.53 0.52 0.55 0.53 0.45 0.45 0.46 0.40 0.41 0.46 0.51 0.53 0.56 0.62 0.64 0.72 0.88 0.92 0.97 1.06 1.26 1.37 1.32 1.27 1.17 1.12 1.12 1.12 1.13 1.20 1.32 1.50
0.54 0.39 0.47 0.70 0.66 0.66 0.69 0.63 0.66 0.63 0.51 0.34 0.33 0.36 0.41 0.41 0.39 0.42 0.41 0.38 0.37 0.38 0.40 0.42 0.47 0.56 0.63 0.72 0.83 0.87 0.91 1.05 1.26 1.30 1.21 1.14 1.17 1.18 1.11 1.08 1.13 1.20 1.24 1.25
0.68 0.65 0.98 1.04 0.74 0.71 0.69 0.50 0.37 0.32 0.26 0.23 0.31 0.30 0.29 0.30 0.32 0.35 0.35 0.32 0.31 0.30 0.31 0.35 0.40 0.48 0.57 0.64 0.70 0.76 0.82 0.95 1.13 1.17 1.16 1.19 1.17 1.14 1.05 0.99 1.00 1.05 1.09 1.13
0.82 0.84 0.95 0.83 0.58 0.51 0.55 0.44 0.24 0.22 0.22 0.21 0.25 0.25 0.21 0.22 0.22 0.23 0.23 0.21 0.21 0.22 0.26 0.29 0.29 0.35 0.44 0.48 0.53 0.58 0.68 0.82 0.93 0.96 1.05 1.10 1.04 1.04 0.99 0.91 0.91 0.94 0.99 1.05
1.00 1.12 1.03 0.62 0.38 0.35 0.48 0.63 0.27 0.20 0.20 0.18 0.19 0.26 0.22 0.16 0.16 0.16 0.15 0.14 0.14 0.16 0.21 0.25 0.25 0.28 0.33 0.41 0.45 0.49 0.61 0.74 0.84 0.86 0.89 0.94 1.01 1.00 1.00 0.95 0.92 0.93 0.97 0.98
0.94 1.17 0.94 0.47 0.33 0.37 0.67 0.77 0.39 0.27 0.23 0.20 0.19 0.19 0.16 0.14 0.14 0.14 0.12 0.12 0.13 0.16 0.22 0.25 0.26 0.27 0.28 0.36 0.39 0.45 0.51 0.62 0.71 0.73 0.81 0.92 1.03 1.07 1.10 1.05 0.98 0.97 1.02 1.04
0.85 1.10 0.99 0.47 0.43 0.58 0.64 0.48 0.40 0.33 0.28 0.22 0.16 0.12 0.10 0.11 0.11 0.12 0.12 0.12 0.13 0.16 0.23 0.28 0.29 0.29 0.28 0.32 0.37 0.40 0.41 0.50 0.64 0.74 0.82 0.91 1.04 1.10 1.09 1.09 1.10 1.11 1.08 1.10
0.91 1.02 0.69 0.47 0.53 0.55 0.48 0.43 0.33 0.27 0.22 0.19 0.16 0.14 0.11 0.10 0.11 0.12 0.14 0.15 0.15 0.18 0.24 0.24 0.27 0.31 0.33 0.36 0.38 0.36 0.38 0.42 0.50 0.57 0.62 0.73 0.86 0.99 1.05 1.04 1.06 1.07 1.13 1.19
0.71 0.61 0.40 0.38 0.40 0.37 0.35 0.32 0.26 0.23 0.20 0.17 0.15 0.13 0.14 0.13 0.12 0.13 0.14 0.15 0.17 0.20 0.22 0.22 0.25 0.28 0.31 0.34 0.36 0.38 0.41 0.43 0.45 0.47 0.49 0.57 0.72 0.79 0.85 0.90 0.97 1.06 1.14 1.24
0.69 0.60 0.43 0.35 0.34 0.32 0.29 0.23 0.22 0.25 0.24 0.21 0.18 0.14 0.12 0.12 0.11 0.12 0.14 0.14 0.17 0.20 0.22 0.24 0.24 0.25 0.27 0.28 0.31 0.34 0.38 0.42 0.47 0.50 0.51 0.55 0.61 0.74 0.83 0.88 0.95 1.03 1.10 1.24
0.74 0.62 0.56 0.40 0.31 0.27 0.25 0.22 0.19 0.20 0.22 0.24 0.25 0.22 0.16 0.14 0.12 0.14 0.15 0.16 0.19 0.22 0.24 0.26 0.25 0.23 0.27 0.29 0.32 0.38 0.42 0.41 0.43 0.48 0.55 0.59 0.63 0.72 0.81 0.82 0.83 0.87 0.93 1.00
0.49 0.45 0.40 0.32 0.26 0.22 0.21 0.18 0.15 0.14 0.15 0.17 0.20 0.26 0.25 0.22 0.17 0.15 0.16 0.18 0.21 0.24 0.25 0.23 0.23 0.22 0.25 0.28 0.35 0.47 0.52 0.50 0.49 0.50 0.57 0.65 0.68 0.70 0.76 0.78 0.79 0.81 0.82 0.88
0.35 0.35 0.36 0.30 0.24 0.20 0.19 0.16 0.14 0.15 0.17 0.17 0.18 0.21 0.24 0.26 0.23 0.20 0.20 0.20 0.22 0.22 0.23 0.21 0.21 0.23 0.26 0.29 0.33 0.38 0.42 0.46 0.50 0.54 0.56 0.62 0.71 0.78 0.84 0.90 0.85 0.77 0.78 0.85
0.33 0.33 0.35 0.30 0.23 0.20 0.21 0.22 0.21 0.20 0.19 0.17 0.17 0.21 0.22 0.22 0.23 0.21 0.21 0.21 0.20 0.22 0.21 0.20 0.20 0.22 0.26 0.28 0.29 0.32 0.38 0.46 0.55 0.60 0.60 0.62 0.74 0.88 0.93 0.95 0.92 0.83 0.75 0.75
0.31 0.28 0.28 0.29 0.25 0.20 0.21 0.23 0.24 0.24 0.21 0.19 0.19 0.20 0.23 0.24 0.27 0.28 0.27 0.27 0.25 0.24 0.23 0.22 0.22 0.23 0.24 0.27 0.30 0.34 0.40 0.52 0.62 0.68 0.64 0.65 0.70 0.75 0.78 0.84 0.85 0.82 0.80 0.82
0.34 0.36 0.35 0.34 0.30 0.25 0.23 0.23 0.24 0.26 0.24 0.23 0.23 0.26 0.30 0.33 0.34 0.31 0.32 0.35 0.34 0.32 0.31 0.32 0.30 0.29 0.30 0.32 0.36 0.43 0.50 0.53 0.58 0.65 0.64 0.62 0.64 0.64 0.68 0.74 0.73 0.73 0.74 0.80
0.33 0.35 0.39 0.43 0.43 0.36 0.30 0.27 0.28 0.32 0.31 0.27 0.25 0.31 0.36 0.37 0.37 0.37 0.37 0.37 0.37 0.35 0.36 0.39 0.40 0.38 0.38 0.41 0.45 0.48 0.52 0.55 0.55 0.63 0.67 0.63 0.62 0.65 0.70 0.72 0.72 0.70 0.69 0.71
0.30 0.31 0.33 0.39 0.43 0.44 0.39 0.36 0.35 0.35 0.33 0.32 0.33 0.39 0.43 0.40 0.38 0.36 0.38 0.42 0.45 0.45 0.43 0.42 0.47 0.43 0.41 0.47 0.53 0.54 0.55 0.56 0.57 0.62 0.65 0.65 0.65 0.68 0.73 0.77 0.76 0.73 0.73 0.73
0.33 0.34 0.36 0.38 0.39 0.43 0.43 0.43 0.42 0.42 0.39 0.39 0.41 0.44 0.46 0.43 0.40 0.40 0.41 0.43 0.45 0.45 0.44 0.48 0.45 0.41 0.42 0.46 0.52 0.52 0.56 0.59 0.63 0.66 0.67 0.71 0.76 0.79 0.78 0.79 0.81 0.79 0.76 0.75
0.33 0.36 0.40 0.41 0.39 0.39 0.44 0.45 0.46 0.47 0.46 0.43 0.43 0.45 0.45 0.42 0.42 0.45 0.49 0.50 0.46 0.44 0.46 0.51 0.48 0.46 0.46 0.51 0.53 0.50 0.54 0.56 0.60 0.66 0.69 0.73 0.79 0.82 0.79 0.79 0.81 0.85 0.88 0.84
0.31 0.34 0.37 0.38 0.40 0.42 0.46 0.47 0.44 0.40 0.41 0.43 0.42 0.42 0.43 0.45 0.45 0.45 0.46 0.50 0.50 0.53 0.53 0.54 0.54 0.60 0.64 0.61 0.52 0.51 0.54 0.57 0.63 0.71 0.74 0.76 0.81 0.85 0.83 0.80 0.82 0.85 0.89 0.93
0.29 0.32 0.37 0.39 0.42 0.45 0.47 0.49 0.48 0.43 0.39 0.43 0.48 0.51 0.53 0.55 0.54 0.53 0.55 0.53 0.56 0.59 0.50 0.52 0.66 0.77 0.79 0.65 0.59 0.57 0.56 0.60 0.68 0.77 0.82 0.84 0.88 0.91 0.92 0.90 0.91 0.92 0.96 1.03
0.30 0.31 0.36 0.40 0.40 0.43 0.50 0.54 0.51 0.47 0.42 0.45 0.52 0.56 0.58 0.59 0.56 0.54 0.59 0.64 0.68 0.65 0.52 0.54 0.66 0.75 0.77 0.67 0.67 0.66 0.66 0.69 0.75 0.79 0.82 0.87 0.94 0.99 0.99 1.02 1.03 1.01 1.00 1.05
0.31 0.33 0.36 0.41 0.43 0.44 0.47 0.47 0.46 0.46 0.46 0.49 0.50 0.52 0.54 0.56 0.58 0.58 0.56 0.58 0.65 0.67 0.61 0.64 0.72 0.75 0.68 0.67 0.72 0.75 0.76 0.78 0.84 0.89 0.92 0.97 1.01 1.05 1.06 1.07 1.09 1.12 1.14 1.15
0.35 0.36 0.38 0.42 0.44 0.45 0.45 0.45 0.46 0.45 0.45 0.48 0.50 0.50 0.52 0.52 0.52 0.54 0.54 0.55 0.58 0.64 0.64 0.66 0.67 0.70 0.66 0.66 0.69 0.71 0.72 0.76 0.83 0.89 0.91 0.97 1.02 1.07 1.08 1.08 1.07 1.11 1.17 1.21
0.36 0.35 0.36 0.37 0.38 0.39 0.41 0.43 0.47 0.51 0.51 0.50 0.52 0.51 0.51 0.54 0.54 0.53 0.53 0.54 0.57 0.60 0.64 0.70 0.73 0.72 0.72 0.75 0.76 0.72 0.71 0.72 0.73 0.77 0.84 0.90 0.98 1.06 1.10 1.12 1.15 1.18 1.23 1.28

GEFSNGP_prec_meanprecacc_372.txt.gz
Total_Precipitation_Accumulation
0.45 0.46 0.59 0.63 0.56 0.56 0.67 0.79 0.98 0.90 0.82 0.67 0.63 0.69 0.74 0.71 0.65 0.62 0.55 0.48 0.52 0.57 0.65 0.69 0.76 0.81 0.81 0.77 0.84 0.92 1.07 1.19 1.26 1.36 1.43 1.36 1.25 1.19 1.26 1.24 1.24 1.36 1.49 1.61
0.35 0.32 0.42 0.50 0.48 0.50 0.54 0.59 0.72 0.78 0.75 0.58 0.53 0.54 0.58 0.55 0.49 0.48 0.48 0.43 0.45 0.50 0.58 0.59 0.61 0.65 0.65 0.73 0.90 0.93 0.99 1.07 1.27 1.38 1.33 1.29 1.19 1.16 1.15 1.15 1.17 1.24 1.36 1.54
0.54 0.39 0.47 0.70 0.66 0.67 0.69 0.64 0.68 0.64 0.52 0.35 0.35 0.38 0.46 0.44 0.43 0.45 0.43 0.42 0.42 0.42 0.43 0.45 0.49 0.58 0.65 0.74 0.86 0.90 0.93 1.07 1.27 1.31 1.23 1.16 1.20 1.23 1.15 1.12 1.17 1.24 1.29 1.28
0.69 0.65 0.99 1.04 0.75 0.71 0.69 0.51 0.40 0.33 0.27 0.25 0.34 0.34 0.33 0.34 0.35 0.37 0.37 0.34 0.33 0.32 0.32 0.36 0.41 0.50 0.60 0.67 0.73 0.79 0.84 0.96 1.15 1.18 1.18 1.21 1.20 1.19 1.11 1.05 1.05 1.10 1.13 1.17
0.83 0.85 0.95 0.83 0.58 0.52 0.55 0.45 0.25 0.22 0.23 0.22 0.27 0.29 0.27 0.27 0.25 0.25 0.25 0.23 0.23 0.24 0.27 0.30 0.31 0.37 0.45 0.52 0.57 0.61 0.70 0.84 0.95 0.97 1.07 1.13 1.07 1.07 1.02 0.95 0.95 0.98 1.03 1.09
1.01 1.13 1.04 0.62 0.38 0.36 0.48 0.63 0.28 0.21 0.20 0.18 0.21 0.29 0.27 0.20 0.19 0.18 0.17 0.16 0.17 0.19 0.22 0.27 0.27 0.30 0.36 0.46 0.50 0.52 0.63 0.76 0.86 0.89 0.91 0.96 1.03 1.03 1.02 0.98 0.94 0.96 1.00 1.01
0.95 1.18 0.95 0.47 0.33 0.37 0.68 0.78 0.40 0.27 0.24 0.21 0.20 0.21 0.18 0.16 0.15 0.15 0.14 0.14 0.16 0.18 0.24 0.27 0.28 0.30 0.32 0.40 0.43 0.48 0.53 0.64 0.72 0.76 0.84 0.94 1.05 1.09 1.12 1.09 1.02 1.00 1.05 1.07
0.86 1.11 1.00 0.47 0.43 0.58 0.65 0.48 0.41 0.34 0.28 0.23 0.17 0.13 0.11 0.11 0.12 0.12 0.12 0.14 0.16 0.18 0.26 0.31 0.33 0.33 0.33 0.37 0.41 0.44 0.45 0.53 0.67 0.76 0.84 0.94 1.06 1.12 1.12 1.14 1.15 1.15 1.13 1.14
0.91 1.02 0.69 0.47 0.53 0.56 0.48 0.43 0.33 0.27 0.23 0.20 0.17 0.14 0.11 0.10 0.11 0.13 0.14 0.16 0.18 0.21 0.27 0.27 0.31 0.34 0.36 0.40 0.44 0.44 0.45 0.47 0.54 0.60 0.65 0.76 0.88 1.02 1.08 1.09 1.11 1.13 1.18 1.23
0.71 0.61 0.40 0.38 0.40 0.38 0.35 0.32 0.27 0.24 0.20 0.18 0.15 0.14 0.14 0.13 0.13 0.13 0.14 0.16 0.19 0.23 0.25 0.25 0.27 0.31 0.33 0.37 0.41 0.44 0.46 0.48 0.48 0.48 0.52 0.60 0.75 0.83 0.88 0.94 1.01 1.10 1.19 1.30
0.69 0.60 0.43 0.35 0.34 0.32 0.30 0.24 0.22 0.25 0.24 0.21 0.18 0.14 0.13 0.12 0.12 0.12 0.14 0.14 0.18 0.23 0.25 0.25 0.26 0.27 0.29 0.31 0.34 0.38 0.42 0.46 0.50 0.53 0.55 0.59 0.67 0.80 0.88 0.93 1.01 1.07 1.14 1.29
0.75 0.62 0.57 0.40 0.32 0.27 0.26 0.22 0.19 0.20 0.23 0.24 0.25 0.23 0.16 0.14 0.12 0.14 0.15 0.17 0.20 0.24 0.27 0.28 0.26 0.25 0.29 0.31 0.34 0.41 0.45 0.45 0.47 0.51 0.58 0.63 0.70 0.80 0.88 0.90 0.92 0.94 1.00 1.06
0.49 0.45 0.40 0.32 0.26 0.22 0.21 0.18 0.16 0.15 0.16 0.18 0.20 0.26 0.26 0.22 0.18 0.15 0.16 0.19 0.22 0.25 0.26 0.25 0.24 0.23 0.26 0.29 0.36 0.49 0.54 0.53 0.52 0.52 0.59 0.68 0.72 0.76 0.83 0.86 0.87 0.88 0.90 0.95
0.35 0.35 0.36 0.30 0.24 0.21 0.19 0.17 0.14 0.15 0.17 0.18 0.18 0.21 0.24 0.27 0.24 0.20 0.20 0.22 0.23 0.23 0.23 0.22 0.22 0.24 0.27 0.29 0.34 0.39 0.44 0.49 0.53 0.58 0.58 0.65 0.75 0.84 0.91 0.99 0.94 0.85 0.85 0.91
0.33 0.33 0.35 0.30 0.23 0.20 0.22 0.23 0.22 0.21 0.19 0.18 0.17 0.21 0.23 0.23 0.23 0.22 0.22 0.22 0.22 0.22 0.22 0.21 0.21 0.23 0.27 0.29 0.30 0.33 0.40 0.48 0.58 0.64 0.63 0.65 0.78 0.93 0.99 1.02 0.99 0.89 0.80 0.81
0.32 0.28 0.28 0.29 0.25 0.20 0.21 0.23 0.25 0.25 0.22 0.20 0.20 0.20 0.23 0.24 0.27 0.28 0.28 0.29 0.27 0.25 0.23 0.22 0.22 0.23 0.25 0.29 0.32 0.36 0.42 0.54 0.65 0.71 0.66 0.67 0.73 0.79 0.82 0.88 0.89 0.85 0.82 0.85
0.35 0.37 0.36 0.35 0.31 0.26 0.23 0.23 0.25 0.26 0.24 0.23 0.23 0.26 0.30 0.33 0.34 0.32 0.34 0.37 0.37 0.34 0.32 0.32 0.30 0.29 0.31 0.34 0.38 0.45 0.52 0.55 0.60 0.67 0.66 0.63 0.65 0.67 0.72 0.76 0.75 0.75 0.76 0.83
0.33 0.36 0.40 0.44 0.43 0.36 0.30 0.27 0.28 0.32 0.31 0.28 0.26 0.32 0.37 0.37 0.38 0.38 0.39 0.39 0.39 0.37 0.37 0.40 0.41 0.39 0.39 0.42 0.46 0.49 0.54 0.57 0.58 0.65 0.69 0.64 0.64 0.67 0.73 0.74 0.74 0.72 0.70 0.73
0.31 0.32 0.34 0.40 0.44 0.45 0.40 0.37 0.35 0.36 0.34 0.33 0.34 0.40 0.44 0.41 0.38 0.37 0.39 0.44 0.47 0.47 0.45 0.44 0.48 0.43 0.42 0.48 0.54 0.55 0.56 0.57 0.59 0.64 0.67 0.67 0.67 0.70 0.76 0.80 0.79 0.76 0.75 0.75
0.34 0.35 0.38 0.40 0.40 0.44 0.45 0.45 0.44 0.44 0.41 0.40 0.42 0.45 0.47 0.44 0.41 0.41 0.43 0.46 0.48 0.47 0.47 0.49 0.46 0.42 0.43 0.46 0.53 0.52 0.57 0.60 0.64 0.68 0.70 0.73 0.79 0.82 0.81 0.82 0.84 0.83 0.79 0.78
0.34 0.37 0.41 0.42 0.40 0.40 0.45 0.46 0.47 0.49 0.48 0.44 0.44 0.47 0.46 0.43 0.43 0.47 0.51 0.52 0.49 0.47 0.49 0.53 0.49 0.46 0.47 0.52 0.53 0.50 0.55 0.57 0.61 0.68 0.71 0.74 0.81 0.84 0.82 0.82 0.86 0.89 0.91 0.88
0.31 0.34 0.37 0.38 0.41 0.43 0.46 0.47 0.45 0.41 0.42 0.44 0.44 0.44 0.45 0.47 0.46 0.47 0.47 0.52 0.53 0.56 0.56 0.56 0.55 0.61 0.64 0.62 0.53 0.51 0.54 0.57 0.63 0.72 0.76 0.78 0.82 0.86 0.85 0.83 0.86 0.89 0.92 0.96
0.29 0.33 0.37 0.39 0.42 0.46 0.47 0.50 0.49 0.44 0.41 0.45 0.50 0.53 0.55 0.57 0.55 0.54 0.57 0.55 0.58 0.61 0.52 0.54 0.67 0.78 0.80 0.66 0.59 0.57 0.56 0.60 0.68 0.78 0.83 0.86 0.90 0.93 0.94 0.93 0.94 0.95 0.98 1.05
0.30 0.32 0.36 0.40 0.40 0.43 0.50 0.54 0.52 0.48 0.44 0.46 0.53 0.57 0.60 0.60 0.57 0.56 0.60 0.65 0.70 0.67 0.53 0.56 0.67 0.76 0.77 0.67 0.67 0.66 0.66 0.69 0.75 0.79 0.83 0.89 0.96 1.01 1.02 1.04 1.06 1.03 1.02 1.07
0.31 0.34 0.37 0.42 0.43 0.45 0.48 0.48 0.47 0.47 0.48 0.50 0.52 0.53 0.55 0.57 0.60 0.59 0.57 0.59 0.66 0.69 0.62 0.65 0.73 0.76 0.68 0.67 0.72 0.75 0.76 0.79 0.84 0.90 0.94 0.99 1.04 1.07 1.08 1.09 1.11 1.13 1.15 1.17
0.35 0.37 0.39 0.43 0.45 0.46 0.47 0.47 0.48 0.47 0.47 0.49 0.51 0.51 0.52 0.53 0.53 0.54 0.54 0.55 0.58 0.65 0.65 0.66 0.68 0.71 0.67 0.66 0.69 0.72 0.73 0.77 0.84 0.90 0.93 0.99 1.04 1.08 1.10 1.09 1.08 1.13 1.19 1.23
0.36 0.36 0.37 0.38 0.39 0.40 0.43 0.45 0.48 0.52 0.52 0.51 0.53 0.52 0.52 0.54 0.54 0.53 0.53 0.55 0.58 0.61 0.65 0.70 0.73 0.73 0.72 0.75 0.77 0.72 0.71 0.73 0.74 0.78 0.85 0.91 1.00 1.08 1.11 1.14 1.17 1.21 1.26 1.31

GEFSNGP_prec_meanprecacc_378.txt.gz
Total_Precipitation_Accumulation
0.45 0.46 0.59 0.63 0.56 0.56 0.67 0.80 0.98 0.90 0.82 0.67 0.64 0.70 0.75 0.72 0.66 0.62 0.55 0.49 0.54 0.58 0.67 0.71 0.77 0.82 0.82 0.79 0.86 0.93 1.08 1.20 1.27 1.37 1.44 1.37 1.25 1.19 1.26 1.25 1.24 1.38 1.51 1.62
0.35 0.32 0.43 0.50 0.48 0.50 0.54 0.60 0.72 0.78 0.75 0.59 0.54 0.55 0.60 0.56 0.51 0.49 0.49 0.44 0.46 0.51 0.59 0.60 0.62 0.65 0.66 0.74 0.92 0.96 1.00 1.08 1.28 1.39 1.34 1.29 1.20 1.16 1.16 1.15 1.17 1.26 1.38 1.55
0.55 0.39 0.47 0.70 0.66 0.67 0.69 0.64 0.68 0.64 0.52 0.36 0.36 0.40 0.49 0.46 0.44 0.46 0.45 0.43 0.43 0.42 0.44 0.45 0.50 0.59 0.67 0.75 0.88 0.92 0.96 1.09 1.29 1.33 1.24 1.17 1.21 1.23 1.15 1.13 1.18 1.25 1.30 1.30
0.69 0.65 0.99 1.04 0.75 0.71 0.69 0.51 0.40 0.33 0.28 0.26 0.35 0.35 0.36 0.37 0.37 0.39 0.39 0.36 0.34 0.32 0.33 0.37 0.42 0.51 0.61 0.68 0.75 0.81 0.87 1.00 1.18 1.22 1.20 1.23 1.21 1.20 1.12 1.06 1.06 1.11 1.15 1.18
0.84 0.85 0.96 0.83 0.58 0.52 0.55 0.45 0.25 0.23 0.23 0.23 0.28 0.30 0.29 0.30 0.28 0.28 0.28 0.25 0.25 0.25 0.28 0.31 0.32 0.38 0.46 0.53 0.59 0.62 0.73 0.87 0.98 1.00 1.10 1.15 1.07 1.08 1.03 0.96 0.96 0.99 1.04 1.11
1.02 1.13 1.04 0.62 0.38 0.36 0.48 0.63 0.28 0.21 0.21 0.19 0.21 0.30 0.28 0.22 0.21 0.21 0.20 0.19 0.21 0.22 0.24 0.28 0.28 0.31 0.38 0.48 0.53 0.55 0.65 0.78 0.88 0.91 0.94 0.98 1.04 1.03 1.03 0.99 0.96 0.97 1.01 1.02
0.96 1.19 0.95 0.47 0.33 0.37 0.68 0.78 0.40 0.28 0.25 0.22 0.21 0.22 0.19 0.17 0.16 0.17 0.16 0.16 0.19 0.20 0.26 0.29 0.30 0.31 0.34 0.42 0.46 0.51 0.56 0.67 0.74 0.78 0.87 0.98 1.08 1.11 1.14 1.11 1.04 1.02 1.07 1.08
0.86 1.11 1.00 0.47 0.43 0.58 0.65 0.49 0.41 0.34 0.29 0.23 0.18 0.13 0.11 0.12 0.12 0.13 0.13 0.14 0.17 0.21 0.30 0.33 0.34 0.34 0.34 0.38 0.43 0.48 0.49 0.57 0.70 0.80 0.89 0.99 1.10 1.14 1.15 1.17 1.17 1.17 1.15 1.16
0.92 1.02 0.69 0.47 0.53 0.56 0.48 0.43 0.33 0.27 0.23 0.20 0.17 0.14 0.11 0.10 0.11 0.13 0.14 0.17 0.19 0.25 0.32 0.31 0.33 0.35 0.37 0.42 0.46 0.47 0.50 0.52 0.58 0.64 0.70 0.81 0.92 1.05 1.11 1.12 1.14 1.15 1.20 1.25
0.72 0.61 0.40 0.38 0.40 0.38 0.35 0.32 0.27 0.24 0.20 0.18 0.15 0.14 0.14 0.13 0.13 0.13 0.14 0.16 0.20 0.26 0.30 0.28 0.29 0.32 0.35 0.39 0.42 0.47 0.52 0.53 0.52 0.52 0.55 0.65 0.80 0.87 0.91 0.97 1.03 1.12 1.21 1.32
0.70 0.61 0.44 0.35 0.34 0.32 0.30 0.24 0.22 0.25 0.24 0.21 0.18 0.14 0.13 0.12 0.12 0.12 0.14 0.14 0.19 0.25 0.29 0.29 0.27 0.29 0.31 0.32 0.35 0.40 0.46 0.51 0.55 0.55 0.58 0.63 0.71 0.84 0.92 0.97 1.04 1.10 1.16 1.31
0.75 0.63 0.57 0.40 0.32 0.27 0.26 0.22 0.19 0.20 0.23 0.24 0.25 0.23 0.16 0.14 0.12 0.14 0.15 0.17 0.21 0.26 0.30 0.30 0.28 0.27 0.31 0.32 0.35 0.43 0.49 0.50 0.53 0.55 0.61 0.67 0.74 0.84 0.92 0.95 0.96 0.99 1.05 1.10
0.49 0.45 0.40 0.32 0.26 0.22 0.21 0.18 0.16 0.15 0.16 0.18 0.21 0.26 0.26 0.22 0.18 0.15 0.16 0.20 0.23 0.27 0.30 0.27 0.26 0.25 0.27 0.30 0.38 0.51 0.57 0.57 0.58 0.57 0.62 0.71 0.76 0.80 0.87 0.91 0.92 0.93 0.96 1.02
0.35 0.35 0.36 0.30 0.24 0.21 0.19 0.17 0.14 0.15 0.17 0.18 0.19 0.21 0.24 0.27 0.24 0.20 0.20 0.22 0.24 0.26 0.28 0.25 0.27 0.27 0.28 0.30 0.35 0.41 0.47 0.53 0.58 0.62 0.61 0.68 0.79 0.90 0.95 1.03 0.98 0.90 0.91 0.98
0.33 0.33 0.35 0.30 0.23 0.20 0.22 0.23 0.22 0.21 0.20 0.18 0.18 0.21 0.23 0.23 0.24 0.22 0.22 0.23 0.23 0.25 0.26 0.25 0.25 0.25 0.28 0.31 0.31 0.35 0.43 0.51 0.62 0.66 0.65 0.68 0.84 1.00 1.04 1.05 1.02 0.93 0.85 0.88
0.32 0.28 0.28 0.29 0.26 0.20 0.21 0.24 0.25 0.25 0.22 0.20 0.20 0.21 0.23 0.25 0.28 0.28 0.28 0.29 0.28 0.27 0.26 0.25 0.25 0.25 0.27 0.32 0.35 0.38 0.45 0.57 0.68 0.73 0.68 0.71 0.79 0.87 0.88 0.92 0.92 0.88 0.86 0.88
0.35 0.37 0.36 0.35 0.31 0.26 0.23 0.23 0.25 0.26 0.25 0.24 0.24 0.28 0.31 0.34 0.35 0.33 0.34 0.37 0.38 0.35 0.34 0.35 0.32 0.30 0.33 0.36 0.39 0.46 0.54 0.57 0.63 0.69 0.68 0.67 0.72 0.75 0.78 0.82 0.80 0.78 0.79 0.85
0.34 0.36 0.40 0.44 0.44 0.37 0.30 0.28 0.29 0.33 0.32 0.29 0.28 0.34 0.39 0.39 0.39 0.38 0.39 0.40 0.39 0.38 0.38 0.42 0.43 0.40 0.40 0.43 0.47 0.50 0.55 0.58 0.59 0.67 0.71 0.68 0.70 0.74 0.79 0.79 0.78 0.76 0.74 0.75
0.31 0.32 0.34 0.40 0.44 0.45 0.41 0.38 0.37 0.38 0.36 0.35 0.36 0.42 0.45 0.42 0.39 0.38 0.40 0.44 0.47 0.48 0.46 0.45 0.49 0.44 0.42 0.48 0.55 0.55 0.57 0.58 0.61 0.66 0.69 0.70 0.72 0.76 0.81 0.83 0.82 0.80 0.78 0.78
0.35 0.36 0.38 0.41 0.41 0.45 0.46 0.47 0.47 0.47 0.43 0.42 0.44 0.46 0.48 0.44 0.42 0.41 0.43 0.46 0.48 0.49 0.48 0.50 0.46 0.42 0.43 0.47 0.53 0.53 0.57 0.60 0.65 0.71 0.72 0.76 0.83 0.87 0.86 0.85 0.88 0.86 0.81 0.80
0.35 0.38 0.42 0.43 0.41 0.41 0.46 0.48 0.49 0.51 0.50 0.46 0.46 0.48 0.47 0.44 0.44 0.47 0.51 0.53 0.50 0.48 0.51 0.54 0.49 0.47 0.47 0.52 0.54 0.51 0.56 0.58 0.62 0.70 0.74 0.78 0.85 0.89 0.86 0.85 0.88 0.91 0.93 0.89
0.31 0.35 0.38 0.39 0.42 0.44 0.47 0.49 0.46 0.43 0.44 0.46 0.45 0.45 0.46 0.47 0.47 0.47 0.48 0.53 0.54 0.57 0.58 0.57 0.56 0.62 0.66 0.63 0.53 0.52 0.55 0.58 0.65 0.74 0.79 0.81 0.86 0.91 0.88 0.85 0.89 0.92 0.94 0.97
0.30 0.33 0.38 0.40 0.43 0.47 0.48 0.51 0.50 0.45 0.42 0.46 0.51 0.54 0.56 0.58 0.55 0.55 0.58 0.56 0.59 0.63 0.55 0.56 0.69 0.80 0.82 0.67 0.60 0.58 0.57 0.61 0.69 0.79 0.85 0.88 0.92 0.96 0.97 0.95 0.96 0.97 1.00 1.07
0.31 0.32 0.37 0.41 0.41 0.44 0.51 0.55 0.53 0.49 0.45 0.47 0.54 0.59 0.61 0.61 0.58 0.57 0.62 0.67 0.72 0.69 0.56 0.58 0.69 0.78 0.79 0.68 0.68 0.68 0.67 0.70 0.76 0.81 0.85 0.90 0.97 1.03 1.04 1.07 1.08 1.05 1.04 1.09
0.31 0.34 0.37 0.42 0.44 0.46 0.49 0.49 0.48 0.49 0.50 0.51 0.53 0.54 0.57 0.59 0.61 0.60 0.59 0.60 0.68 0.71 0.65 0.68 0.76 0.78 0.70 0.69 0.74 0.77 0.78 0.80 0.86 0.92 0.95 1.00 1.05 1.09 1.11 1.11 1.14 1.16 1.17 1.18
0.35 0.37 0.39 0.43 0.46 0.47 0.48 0.48 0.50 0.49 0.49 0.51 0.52 0.52 0.53 0.53 0.53 0.55 0.55 0.56 0.60 0.67 0.67 0.68 0.70 0.73 0.69 0.68 0.71 0.73 0.74 0.78 0.86 0.91 0.94 1.00 1.06 1.11 1.12 1.12 1.11 1.15 1.21 1.26
0.36 0.36 0.37 0.38 0.39 0.41 0.44 0.46 0.50 0.55 0.55 0.53 0.54 0.53 0.52 0.55 0.54 0.54 0.54 0.56 0.59 0.63 0.67 0.72 0.75 0.75 0.74 0.77 0.78 0.73 0.73 0.75 0.76 0.81 0.88 0.94 1.02 1.10 1.14 1.16 1.19 1.23 1.29 1.35

GEFSNGP_prec_meanprecacc_384.txt.gz
Total_Precipitation_Accumulation
0.46 0.46 0.59 0.63 0.56 0.57 0.68 0.80 0.99 0.91 0.83 0.68 0.65 0.71 0.77 0.74 0.67 0.63 0.55 0.49 0.54 0.58 0.68 0.72 0.78 0.83 0.82 0.79 0.86 0.93 1.08 1.21 1.28 1.38 1.45 1.38 1.26 1.20 1.27 1.26 1.25 1.39 1.52 1.63
0.35 0.32 0.43 0.50 0.49 0.51 0.54 0.60 0.73 0.78 0.76 0.60 0.56 0.57 0.62 0.58 0.51 0.50 0.50 0.45 0.46 0.51 0.59 0.61 0.64 0.67 0.67 0.75 0.93 0.96 1.01 1.08 1.28 1.40 1.35 1.30 1.20 1.17 1.17 1.17 1.18 1.27 1.40 1.56
0.55 0.39 0.47 0.71 0.66 0.67 0.69 0.64 0.69 0.65 0.53 0.37 0.37 0.43 0.52 0.48 0.44 0.47 0.46 0.44 0.43 0.43 0.44 0.46 0.51 0.61 0.68 0.77 0.89 0.93 0.96 1.10 1.30 1.34 1.25 1.18 1.21 1.24 1.16 1.15 1.20 1.26 1.31 1.31
0.69 0.65 0.99 1.04 0.75 0.71 0.69 0.51 0.40 0.34 0.28 0.27 0.37 0.37 0.39 0.40 0.38 0.39 0.39 0.37 0.35 0.33 0.33 0.37 0.43 0.52 0.62 0.70 0.76 0.82 0.88 1.01 1.19 1.23 1.21 1.24 1.22 1.21 1.13 1.08 1.07 1.12 1.15 1.19
0.84 0.86 0.96 0.83 0.58 0.52 0.55 0.45 0.25 0.23 0.24 0.23 0.29 0.32 0.31 0.33 0.31 0.30 0.29 0.25 0.25 0.25 0.29 0.31 0.32 0.38 0.47 0.54 0.59 0.63 0.73 0.89 1.01 1.04 1.13 1.17 1.09 1.09 1.05 0.97 0.97 1.00 1.05 1.11
1.02 1.13 1.04 0.62 0.38 0.36 0.48 0.63 0.28 0.21 0.22 0.20 0.22 0.32 0.32 0.25 0.24 0.23 0.21 0.20 0.22 0.22 0.25 0.29 0.28 0.31 0.38 0.48 0.54 0.57 0.69 0.82 0.93 0.95 0.97 1.01 1.06 1.05 1.04 1.01 0.97 0.98 1.02 1.03
0.96 1.19 0.95 0.47 0.33 0.37 0.69 0.79 0.40 0.28 0.25 0.22 0.21 0.23 0.21 0.19 0.19 0.19 0.18 0.18 0.20 0.22 0.27 0.29 0.30 0.32 0.35 0.44 0.48 0.54 0.59 0.70 0.78 0.82 0.90 1.00 1.10 1.13 1.16 1.13 1.05 1.03 1.08 1.09
0.86 1.11 1.00 0.48 0.43 0.58 0.66 0.49 0.41 0.34 0.29 0.23 0.18 0.14 0.12 0.12 0.14 0.15 0.15 0.16 0.20 0.23 0.32 0.35 0.36 0.35 0.36 0.40 0.44 0.49 0.50 0.58 0.72 0.82 0.92 1.01 1.12 1.17 1.17 1.19 1.19 1.19 1.16 1.18
0.92 1.03 0.69 0.48 0.53 0.56 0.48 0.44 0.33 0.27 0.23 0.20 0.17 0.14 0.11 0.10 0.12 0.14 0.16 0.19 0.22 0.28 0.35 0.35 0.37 0.38 0.39 0.43 0.46 0.48 0.51 0.53 0.60 0.66 0.73 0.84 0.96 1.08 1.13 1.14 1.16 1.17 1.22 1.27
0.72 0.61 0.40 0.38 0.41 0.38 0.35 0.32 0.27 0.24 0.20 0.18 0.15 0.14 0.14 0.13 0.13 0.13 0.15 0.17 0.22 0.28 0.33 0.32 0.34 0.37 0.38 0.40 0.43 0.48 0.53 0.54 0.54 0.54 0.58 0.67 0.83 0.91 0.94 0.98 1.05 1.13 1.22 1.33
0.70 0.61 0.44 0.36 0.35 0.32 0.30 0.24 0.23 0.26 0.24 0.21 0.18 0.14 0.13 0.12 0.12 0.12 0.14 0.14 0.19 0.27 0.32 0.31 0.31 0.33 0.35 0.34 0.37 0.41 0.47 0.52 0.57 0.57 0.59 0.65 0.73 0.87 0.95 0.99 1.07 1.13 1.18 1.33
0.76 0.63 0.58 0.41 0.32 0.27 0.26 0.23 0.20 0.21 0.23 0.24 0.25 0.23 0.16 0.14 0.12 0.14 0.15 0.17 0.22 0.28 0.32 0.32 0.30 0.30 0.34 0.34 0.37 0.44 0.49 0.51 0.55 0.56 0.62 0.69 0.76 0.87 0.96 0.97 0.99 1.02 1.08 1.13
0.50 0.46 0.41 0.32 0.26 0.22 0.21 0.18 0.16 0.15 0.16 0.18 0.21 0.26 0.26 0.22 0.18 0.15 0.16 0.20 0.25 0.29 0.32 0.30 0.31 0.29 0.30 0.32 0.39 0.52 0.57 0.58 0.59 0.58 0.63 0.73 0.78 0.83 0.90 0.94 0.95 0.96 0.98 1.04
0.35 0.35 0.36 0.30 0.24 0.21 0.19 0.17 0.14 0.15 0.17 0.18 0.19 0.21 0.24 0.27 0.24 0.20 0.20 0.23 0.25 0.28 0.31 0.30 0.32 0.31 0.31 0.32 0.36 0.42 0.48 0.53 0.59 0.63 0.61 0.69 0.81 0.92 0.98 1.06 1.01 0.93 0.94 1.01
0.33 0.33 0.35 0.30 0.23 0.20 0.22 0.23 0.22 0.21 0.20 0.18 0.18 0.21 0.23 0.23 0.24 0.22 0.22 0.23 0.25 0.28 0.29 0.29 0.29 0.28 0.32 0.32 0.32 0.36 0.44 0.52 0.62 0.68 0.66 0.70 0.86 1.02 1.05 1.07 1.04 0.95 0.88 0.91
0.32 0.29 0.28 0.29 0.26 0.20 0.21 0.24 0.25 0.25 0.22 0.20 0.20 0.21 0.23 0.25 0.28 0.29 0.28 0.30 0.30 0.30 0.29 0.29 0.28 0.28 0.31 0.34 0.36 0.39 0.46 0.59 0.69 0.74 0.70 0.73 0.82 0.89 0.90 0.94 0.94 0.90 0.88 0.91
0.35 0.38 0.36 0.35 0.31 0.26 0.23 0.23 0.25 0.26 0.25 0.24 0.24 0.28 0.31 0.34 0.36 0.34 0.35 0.39 0.40 0.38 0.36 0.37 0.35 0.33 0.36 0.39 0.41 0.48 0.56 0.60 0.65 0.70 0.70 0.69 0.74 0.78 0.80 0.83 0.81 0.80 0.81 0.88
0.34 0.37 0.40 0.44 0.44 0.37 0.30 0.28 0.29 0.33 0.32 0.29 0.29 0.34 0.39 0.40 0.40 0.40 0.41 0.41 0.41 0.40 0.41 0.44 0.45 0.42 0.42 0.45 0.49 0.51 0.57 0.61 0.62 0.69 0.74 0.71 0.73 0.78 0.82 0.81 0.81 0.78 0.77 0.79
0.32 0.32 0.34 0.40 0.44 0.45 0.41 0.38 0.37 0.38 0.37 0.35 0.37 0.43 0.46 0.43 0.40 0.39 0.41 0.46 0.50 0.51 0.48 0.47 0.51 0.46 0.45 0.50 0.57 0.57 0.60 0.61 0.64 0.70 0.73 0.75 0.77 0.80 0.86 0.87 0.86 0.83 0.82 0.82
0.35 0.36 0.38 0.41 0.42 0.45 0.46 0.47 0.47 0.48 0.44 0.43 0.45 0.48 0.50 0.46 0.43 0.42 0.44 0.47 0.50 0.52 0.51 0.53 0.49 0.44 0.45 0.49 0.56 0.56 0.60 0.63 0.68 0.74 0.77 0.82 0.88 0.92 0.91 0.90 0.92 0.90 0.85 0.83
0.35 0.38 0.42 0.43 0.41 0.41 0.46 0.48 0.50 0.52 0.51 0.48 0.48 0.50 0.49 0.45 0.44 0.47 0.52 0.54 0.51 0.50 0.53 0.56 0.52 0.49 0.50 0.55 0.57 0.53 0.58 0.61 0.65 0.73 0.78 0.83 0.92 0.96 0.93 0.91 0.94 0.97 0.98 0.94
0.32 0.35 0.38 0.39 0.42 0.44 0.48 0.49 0.47 0.44 0.45 0.47 0.47 0.46 0.47 0.48 0.48 0.48 0.49 0.54 0.55 0.60 0.60 0.59 0.58 0.64 0.68 0.65 0.55 0.54 0.57 0.61 0.68 0.77 0.83 0.86 0.93 0.98 0.95 0.91 0.94 0.97 0.99 1.01
0.31 0.34 0.39 0.40 0.43 0.47 0.48 0.51 0.50 0.45 0.43 0.47 0.52 0.55 0.57 0.59 0.56 0.56 0.58 0.57 0.61 0.66 0.57 0.58 0.71 0.82 0.84 0.68 0.61 0.59 0.59 0.64 0.72 0.83 0.89 0.94 0.99 1.03 1.03 1.01 1.02 1.03 1.05 1.11
0.31 0.34 0.39 0.42 0.42 0.44 0.52 0.55 0.53 0.50 0.46 0.48 0.55 0.60 0.63 0.62 0.59 0.57 0.63 0.68 0.73 0.72 0.58 0.60 0.71 0.80 0.81 0.69 0.69 0.69 0.69 0.72 0.79 0.84 0.89 0.95 1.03 1.09 1.09 1.12 1.14 1.11 1.08 1.12
0.32 0.34 0.39 0.44 0.45 0.47 0.50 0.49 0.49 0.49 0.51 0.52 0.55 0.56 0.58 0.60 0.62 0.61 0.59 0.61 0.69 0.73 0.66 0.69 0.77 0.80 0.71 0.69 0.74 0.78 0.79 0.82 0.89 0.95 0.99 1.05 1.10 1.14 1.16 1.16 1.19 1.21 1.21 1.22
0.35 0.37 0.40 0.45 0.48 0.48 0.49 0.49 0.51 0.50 0.50 0.53 0.55 0.54 0.55 0.55 0.55 0.56 0.56 0.58 0.61 0.69 0.69 0.70 0.71 0.74 0.70 0.69 0.71 0.74 0.75 0.80 0.88 0.94 0.98 1.04 1.10 1.15 1.17 1.16 1.14 1.18 1.24 1.28
0.36 0.36 0.37 0.39 0.40 0.42 0.45 0.48 0.54 0.58 0.57 0.56 0.57 0.55 0.54 0.57 0.56 0.55 0.55 0.57 0.61 0.64 0.69 0.74 0.77 0.76 0.76 0.78 0.79 0.75 0.74 0.76 0.78 0.84 0.91 0.97 1.06 1.14 1.18 1.20 1.22 1.26 1.32 1.37